Location: ???????
(37.9665°N, 23.4919°E)
Time: 06:15:00
(UTC+00:00)

Daily predictions for brighter satellites

Satellite Brightness Start Highest point End
(mag) Time Altitude Azimuth Time Altitude Azimuth Time Altitude Azimuth
Cosmos 1992 Rocket 4.1 17:22:53 10° SSW 17:28:05 86° WNW 17:33:20 10° NNE
Atlas Centaur 2 3.1 17:28:29 10° SW 17:34:01 32° S 17:38:33 10° ESE
Cosmos 1025 Rocket 3.3 17:30:15 10° N 17:34:38 77° W 17:38:59 10° S
ADEOS Rocket 3.4 17:29:34 10° S 17:35:01 62° W 17:40:30 10° NNW
SL-8 Rocket 4.2 17:36:58 10° N 17:43:08 76° W 17:49:14 10° S
Okean 2 Rocket 4.2 17:42:04 10° SE 17:45:43 25° E 17:49:23 10° NE
CZ-4 R/B 1.3 17:42:29 10° SSE 17:46:21 64° ENE 17:50:10 10° N
USA 186 2.4 17:46:43 10° SE 17:49:28 33° ENE 17:52:13 10° N
Cosmos 2181 Rocket 4.4 17:47:04 10° SSW 17:53:13 70° W 17:59:30 10° N
CZ-4B R/B 3.3 17:50:10 10° S 17:53:45 57° W 17:57:14 10° NNW
Tiangong -1.9 17:52:02 10° W 17:55:06 66° NNW 17:58:11 10° ENE
CARTOSAT-1 4.4 17:53:11 11° SE 17:56:50 32° ENE 18:00:39 10° N
Cosmos 2227 Rocket 4.4 17:57:57 10° NE 17:58:15 10° NE 17:58:33 10° NE
USA 267 4.0 17:54:13 10° NE 18:00:36 56° NW 18:06:57 10° WSW
CSL-04 Rocket 4.0 17:56:51 10° SE 18:02:07 48° ENE 18:07:21 10° N
Cosmos 1697 Rocket 4.1 18:00:16 13° SE 18:02:50 17° E 18:06:19 10° ENE
Milstar 3 4.1 17:55:11 10° WSW 18:03:17 50° SSE 18:16:33 13° E
Okean 1 Rocket 4.2 18:00:57 13° SE 18:03:52 24° E 18:07:25 10° NE
SL-4 R/B 4.4 18:03:49 10° N 18:04:46 11° N 18:05:43 10° NNE
ATLAS 5 CENTAUR R/B 4.2 18:06:23 10° W 18:08:22 15° NW 18:10:27 10° N
Resurs 1-3 4.2 18:04:54 10° S 18:09:10 58° W 18:13:28 10° NNW
CZ-4C R/B 4.5 18:04:23 10° N 18:09:34 21° NE 18:15:23 10° E
SJ-6B 3.7 18:07:52 10° S 18:11:43 50° W 18:15:35 10° NNW
BlueWalker 3 3.7 18:08:41 10° W 18:12:10 33° NW 18:15:40 10° NNE
Sich 1 Rocket 3.7 18:08:16 10° SSE 18:12:30 50° E 18:16:49 10° NNE
Cosmos 1975 Rocket 3.9 18:09:32 10° NNW 18:13:44 52° W 18:17:53 10° S
Cosmos 1656 3.6 18:11:46 10° S 18:17:16 62° ESE 18:22:43 10° NNE
Cosmos 304 Rocket 4.5 18:13:26 10° N 18:17:49 36° ENE 18:20:10 22° ESE
Cosmos 2239 Rocket 4.5 18:12:50 10° N 18:19:03 68° E 18:25:11 10° SSE
Cosmos 371 Rocket 3.6 18:14:33 10° N 18:19:10 46° ENE 18:21:55 22° SE
Okean-O 3.5 18:17:36 22° ESE 18:19:33 31° ENE 18:23:26 10° N
DELTA 4 R/B 3.9 18:16:10 10° SSW 18:19:34 18° S 18:20:51 16° SSE
Genesis I 4.1 18:16:36 10° N 18:19:49 29° NE 18:21:03 24° E
SPOT 1/Viking Rocket 3.9 18:14:46 10° S 18:19:56 68° WSW 18:25:09 10° NNW
NOSS 3-1 (A) 4.4 18:16:45 10° WSW 18:21:19 42° NW 18:26:41 10° NNE
USA 281 3.8 18:17:32 18° ESE 18:21:51 41° ENE 18:27:54 10° N
PSLV R/B 3.6 18:21:27 18° SSE 18:24:08 76° ENE 18:27:55 10° N
Cosmos 1486 Rocket 4.0 18:20:22 10° NNW 18:25:34 84° WSW 18:30:07 14° SSE
Nadezhda 3 Rocket 4.0 18:20:03 10° S 18:26:11 85° W 18:32:24 10° N
Cosmos 2297 Rocket 3.2 18:22:15 10° N 18:27:13 31° ENE 18:29:35 23° E
USA 229 DEB 3.3 18:24:11 10° SSW 18:30:08 74° ESE 18:36:38 10° NE
USA 229 3.3 18:24:16 10° SSW 18:30:14 73° ESE 18:36:44 10° NE
Okean O Rocket 1.5 18:27:38 16° SSE 18:31:05 87° ENE 18:35:28 10° NNW
Cosmos 1821 Rocket 4.3 18:25:24 10° NNW 18:31:27 65° W 18:37:26 10° S
SJ 16-02 4.2 18:29:32 10° WNW 18:31:43 14° W 18:33:54 10° SW
USA 234 3.6 18:29:29 22° ESE 18:33:45 55° NE 18:40:06 10° NW
Cosmos 1536 Rocket 3.5 18:35:36 10° N 18:40:01 73° E 18:42:15 29° SSE
SPOT 5 3.7 18:42:15 31° ESE 18:43:51 38° ENE 18:48:39 10° N
Terra 3.4 18:43:52 19° ENE 18:44:01 19° ENE 18:47:15 10° NNE
CZ-4B R/B 4.2 18:41:36 10° S 18:47:00 47° W 18:52:22 10° NNW
Resurs 01 Rocket 2.2 18:46:05 15° S 18:49:37 54° W 18:53:58 10° NNW
ATLAS 3B R/B 4.5 18:44:16 10° WSW 18:50:39 35° NW 18:57:27 10° NNE
COSMOS 2455 3.6 18:45:24 10° NNW 18:51:00 38° NE 18:52:55 30° E
Cosmos 332 Rocket 4.5 18:47:54 10° N 18:52:22 35° ENE 18:53:00 34° E
CZ-4C R/B 3.0 18:51:34 10° N 18:54:57 73° WNW 18:56:07 38° SSW
Cosmos 44 4.0 18:49:54 10° SW 18:55:14 63° WNW 19:00:34 10° NNE
Cosmos 1934 Rocket 4.0 18:59:14 10° N 19:05:27 84° W 19:09:11 26° S
Cosmos 1777 Rocket 4.2 19:04:52 10° NNW 19:10:06 67° WSW 19:12:09 37° S
Cosmos 1727 Rocket 4.4 19:10:50 39° E 19:11:04 39° E 19:16:47 10° NNE
Cosmos 1892 Rocket 4.3 19:11:18 10° N 19:14:36 40° NE 19:14:36 40° NE
Iridium 4 Rocket 3.8 19:13:15 27° S 19:16:22 76° W 19:22:12 10° N
Spot 2 Rocket 4.2 19:20:04 39° ENE 19:20:04 39° ENE 19:24:25 10° N
Atlas Centaur 2 2.9 19:17:21 10° WSW 19:21:12 30° SSW 19:21:12 30° SSW
Alouette 2 Rocket 4.4 19:21:22 10° NNW 19:27:22 58° W 19:28:27 45° SW
Tiangong 0.4 19:29:01 10° WNW 19:30:25 22° WNW 19:30:25 22° WNW
VEP-3 4.3 19:14:12 10° W 19:33:14 32° SSW 19:35:42 28° S
MetOp-B 4.2 19:33:29 57° SSW 19:34:28 71° WSW 19:39:49 10° NNW
Cosmos 1763 Rocket 4.1 19:32:14 14° SW 19:36:26 53° WNW 19:41:27 10° N
Cosmos 1980 Rocket 3.2 19:40:29 33° NE 19:40:29 33° NE 19:43:45 10° NNE
Cosmos 1455 Rocket 3.5 19:39:44 59° NNW 19:39:44 59° NNW 19:43:27 10° N
Ariane Rocket 3.3 19:40:20 56° NE 19:40:20 56° NE 19:44:39 10° N
Cosmos 405 Rocket 4.2 19:43:11 33° NNW 19:43:11 33° NNW 19:45:36 10° N
Cosmos 2227 Rocket 2.2 19:37:43 10° NNW 19:43:12 67° NE 19:43:12 67° NE
SL-4 R/B 4.0 19:41:23 10° NNW 19:43:00 21° NNW 19:43:00 21° NNW
ATLAS CENTAUR R/B 3.3 19:41:04 10° N 19:42:50 22° N 19:42:50 22° N
Cosmos 1697 Rocket 3.1 19:41:38 16° SW 19:46:11 60° WNW 19:51:48 10° NNE
Cosmos 540 Rocket 4.0 19:49:07 44° WSW 19:50:19 55° WNW 19:55:20 10° N
Cosmos 990 Rocket 4.2 19:47:44 10° NNW 19:52:23 68° WNW 19:52:23 68° WNW
CZ-4C R/B 3.0 19:51:36 10° NNW 19:59:09 75° ENE 20:00:29 64° ESE
USA 281 4.3 20:04:24 30° SW 20:06:17 36° WSW 20:12:15 10° NW
ERS-1 Rocket 3.8 20:09:23 47° WNW 20:09:23 47° WNW 20:13:35 10° NNW
CENTAUR R/B 3.6 20:00:37 10° NNW 20:08:52 53° NE 20:10:29 48° E
Cosmos 2297 Rocket 3.3 20:06:10 10° NW 20:11:13 35° WSW 20:11:25 35° WSW
USA 234 3.9 20:16:49 40° SW 20:16:49 40° SW 20:22:55 10° WNW
Terra 3.2 20:22:35 34° WNW 20:22:35 34° WNW 20:25:45 10° NNW
Cosmos 2173 Rocket 4.2 20:15:57 10° N 20:21:21 65° NNE 20:21:21 65° NNE
Cosmos 2219 3.9 20:23:58 10° NNW 20:28:02 49° NNW 20:28:02 49° NNW
Cosmos 2263 Rocket 3.2 20:29:26 10° NNW 20:33:06 40° N 20:33:06 40° N
COSMOS 2455 4.1 20:31:29 10° NW 20:36:04 32° W 20:36:04 32° W
SL-16 R/B 4.3 21:11:55 19° NNE 21:11:55 19° NNE 21:13:27 10° NNE
Cosmos 1980 Rocket 4.2 21:22:08 21° WNW 21:22:36 21° NW 21:26:51 10° N
CENTAUR R/B 4.2 21:51:34 10° NW 21:57:37 38° W 21:57:37 38° W
Cosmos 2360 Rocket 4.3 22:19:22 23° NNE 22:19:22 23° NNE 22:21:23 10° NNE
Cosmos 2219 Rocket 4.3 22:32:50 21° NNE 22:32:50 21° NNE 22:34:33 10° NNE
Cosmos 2322 Rocket 4.2 22:33:32 23° N 22:33:32 23° N 22:35:52 10° N
Cosmos 2333 Rocket 4.2 22:39:08 24° N 22:39:08 24° N 22:41:23 10° NNE
Lacrosse 5 4.5 23:01:30 16° N 23:01:30 16° N 23:03:37 10° NNE
ATLAS 2AS CENTAUR R/B 4.0 23:41:52 32° E 23:41:52 32° E 23:47:10 10° NE
Cosmos 2237 Rocket 3.6 23:47:20 34° NE 23:47:20 34° NE 23:50:34 10° NNE
COSMOS 2428 4.2 23:56:32 31° NNW 23:56:32 31° NNW 23:59:47 10° N
